TimeEDT,TemperatureF,Dew PointF,Humidity,Sea Level PressureIn,VisibilityMPH,Wind Direction,Wind SpeedMPH,Gust SpeedMPH,PrecipitationIn,Events,Conditions,WindDirDegrees,DateUTC
12:56 AM,29.1,25.2,85,29.83,10.0,SSE,23.0,29.9,0.00,,Overcast,150,2013-03-19 04:56:00
1:28 AM,28.4,26.6,93,29.78,10.0,SSE,19.6,27.6,0.00,,Overcast,160,2013-03-19 05:28:00
1:56 AM,30.0,26.1,85,29.81,10.0,SSE,18.4,-,0.00,,Overcast,160,2013-03-19 05:56:00
2:56 AM,31.1,27.1,85,29.78,10.0,SSE,13.8,27.6,0.00,,Overcast,160,2013-03-19 06:56:00
3:56 AM,32.0,28.0,85,29.77,10.0,South,16.1,26.5,N/A,,Overcast,170,2013-03-19 07:56:00
4:56 AM,32.0,29.1,89,29.75,10.0,South,15.0,19.6,0.00,,Overcast,170,2013-03-19 08:56:00
5:56 AM,32.9,29.1,86,29.74,10.0,South,15.0,-,N/A,,Overcast,170,2013-03-19 09:56:00
6:13 AM,33.8,28.4,81,29.71,10.0,SSE,11.5,-,N/A,,Overcast,160,2013-03-19 10:13:00
6:56 AM,32.9,29.1,86,29.78,7.0,South,10.4,-,0.00,Rain,Light Freezing Rain,190,2013-03-19 10:56:00
7:28 AM,32.0,30.2,93,29.73,2.0,South,9.2,-,0.00,Snow,Light Snow,170,2013-03-19 11:28:00
7:56 AM,32.0,30.0,92,29.78,3.0,South,4.6,-,0.00,Snow,Light Snow,180,2013-03-19 11:56:00
8:56 AM,32.0,30.0,92,29.78,10.0,South,11.5,-,0.01,,Overcast,180,2013-03-19 12:56:00
9:56 AM,32.9,30.0,89,29.77,10.0,South,12.7,-,0.00,,Mostly Cloudy,180,2013-03-19 13:56:00
10:56 AM,34.9,31.1,86,29.76,10.0,SSW,12.7,-,N/A,,Mostly Cloudy,200,2013-03-19 14:56:00
11:56 AM,37.9,32.0,79,29.74,10.0,SSW,8.1,-,N/A,,Mostly Cloudy,210,2013-03-19 15:56:00
12:56 PM,41.9,26.1,53,29.71,10.0,West,15.0,20.7,N/A,,Mostly Cloudy,260,2013-03-19 16:56:00
1:56 PM,41.9,27.1,56,29.69,10.0,West,6.9,16.1,N/A,,Mostly Cloudy,260,2013-03-19 17:56:00
2:56 PM,39.9,27.1,60,29.69,10.0,West,9.2,-,0.00,Rain,Light Rain Showers,270,2013-03-19 18:56:00
3:32 PM,35.6,32.0,87,29.67,6.0,NNW,19.6,24.2,0.00,Snow,Light Snow,340,2013-03-19 19:32:00
3:43 PM,32.0,30.2,93,29.68,0.5,NNW,13.8,-,0.00,Fog-Snow,Light Snow,340,2013-03-19 19:43:00
3:56 PM,31.1,29.1,92,29.73,0.5,NNW,13.8,20.7,0.00,Fog-Snow,Snow,330,2013-03-19 19:56:00
4:09 PM,30.2,28.4,93,29.71,0.8,NW,12.7,-,0.00,Snow,Light Snow,320,2013-03-19 20:09:00
4:38 PM,30.2,26.6,86,29.71,4.0,North,16.1,-,0.00,Snow,Light Snow,350,2013-03-19 20:38:00
4:56 PM,30.0,27.1,89,29.76,6.0,NNW,13.8,-,0.00,Snow,Light Snow Showers,330,2013-03-19 20:56:00
5:56 PM,29.1,23.0,78,29.79,10.0,NW,13.8,-,0.00,Snow,Light Snow Showers,320,2013-03-19 21:56:00
6:56 PM,29.1,21.0,72,29.82,10.0,WNW,10.4,-,0.00,,Overcast,290,2013-03-19 22:56:00
7:56 PM,28.0,17.1,63,29.83,10.0,West,11.5,-,0.00,,Mostly Cloudy,280,2013-03-19 23:56:00
8:56 PM,26.1,19.0,75,29.85,10.0,NW,10.4,-,N/A,,Overcast,310,2013-03-20 00:56:00
9:56 PM,26.1,18.1,72,29.86,10.0,West,6.9,-,N/A,,Overcast,280,2013-03-20 01:56:00
10:56 PM,26.1,17.1,69,29.85,10.0,West,8.1,-,N/A,,Overcast,280,2013-03-20 02:56:00
11:56 PM,26.1,17.1,69,29.85,10.0,West,9.2,-,0.00,Snow,Light Snow,280,2013-03-20 03:56:00